TimeCST,TemperatureF,Dew PointF,Humidity,Sea Level PressureIn,VisibilityMPH,Wind Direction,Wind SpeedMPH,Gust SpeedMPH,PrecipitationIn,Events,Conditions,WindDirDegrees,DateUTC
12:53 AM,32.0,24.1,73,29.99,10.0,Calm,Calm,-,N/A,,Clear,0,2013-02-24 06:53:00
1:53 AM,30.9,23.0,72,29.95,10.0,East,5.8,-,N/A,,Clear,90,2013-02-24 07:53:00
2:53 AM,30.0,23.0,75,29.94,10.0,Calm,Calm,-,N/A,,Clear,0,2013-02-24 08:53:00
3:53 AM,30.0,23.0,75,29.93,10.0,ESE,4.6,-,N/A,,Clear,110,2013-02-24 09:53:00
4:53 AM,30.0,23.0,75,29.92,10.0,SE,5.8,-,N/A,,Clear,130,2013-02-24 10:53:00
5:53 AM,30.0,24.1,79,29.94,10.0,South,3.5,-,N/A,,Clear,170,2013-02-24 11:53:00
6:53 AM,28.9,24.1,82,29.93,10.0,East,5.8,-,N/A,,Clear,100,2013-02-24 12:53:00
7:53 AM,32.0,26.1,79,29.96,9.0,SE,3.5,-,N/A,,Clear,140,2013-02-24 13:53:00
8:53 AM,39.9,30.0,68,29.97,10.0,SE,9.2,-,N/A,,Clear,140,2013-02-24 14:53:00
9:53 AM,45.0,32.0,60,29.96,10.0,SE,12.7,-,N/A,,Clear,140,2013-02-24 15:53:00
10:53 AM,48.9,34.0,56,29.95,10.0,SSE,12.7,23.0,N/A,,Clear,160,2013-02-24 16:53:00
11:53 AM,53.1,35.1,50,29.92,10.0,SSE,18.4,-,N/A,,Clear,150,2013-02-24 17:53:00
12:53 PM,55.9,35.1,45,29.88,10.0,SE,16.1,-,N/A,,Clear,130,2013-02-24 18:53:00
1:53 PM,57.9,36.0,44,29.84,10.0,SSE,13.8,24.2,N/A,,Clear,150,2013-02-24 19:53:00
2:53 PM,59.0,37.0,44,29.81,10.0,SE,17.3,25.3,N/A,,Clear,140,2013-02-24 20:53:00
3:53 PM,59.0,37.9,46,29.78,10.0,SE,19.6,26.5,N/A,,Clear,130,2013-02-24 21:53:00
4:53 PM,57.9,35.1,42,29.76,10.0,ESE,21.9,28.8,N/A,,Clear,120,2013-02-24 22:53:00
5:53 PM,55.9,35.1,45,29.78,10.0,SE,12.7,-,N/A,,Clear,130,2013-02-24 23:53:00
6:53 PM,50.0,34.0,54,29.79,10.0,ESE,8.1,-,N/A,,Clear,120,2013-02-25 00:53:00
7:53 PM,48.9,34.0,56,29.81,10.0,East,5.8,-,N/A,,Clear,100,2013-02-25 01:53:00
8:53 PM,46.0,34.0,63,29.83,10.0,Calm,Calm,-,N/A,,Clear,0,2013-02-25 02:53:00
9:53 PM,46.9,34.0,61,29.82,10.0,East,5.8,-,N/A,,Clear,80,2013-02-25 03:53:00
10:53 PM,39.0,33.1,79,29.83,10.0,North,4.6,-,N/A,,Partly Cloudy,10,2013-02-25 04:53:00
11:53 PM,45.0,34.0,65,29.82,10.0,East,5.8,-,N/A,,Scattered Clouds,80,2013-02-25 05:53:00